weather.gov     
National Weather Service

Regional Weather Roundup
NWS Homepage
This page is being discontinued on March 12, 2014.
The same data is available at this site. Please update your bookmarks.
Thank you, and we apologize for the inconvenience.
Please send an email to SR-SRH.Webmaster@noaa.gov with any concerns.


Current Version
Previous Version:    01  02  03  04  05  06  07  08  09  10  11  12  13  14  15  16  17  18  19  20  21  22  23  24  25  26  27  28  29  30  
   31  32  33  34  35  36  37  38  39  40  41  42  43  44  45  46  47  48  49  50  51  52  53  
[Printable]
141
ASUS42 KCHS 220125
RWRCHS

REGIONAL WEATHER ROUNDUP
NATIONAL WEATHER SERVICE CHARLESTON SC
900 PM EDT THU AUG 21 2014

NOTE: "FAIR" INDICATES FEW OR NO CLOUDS BELOW 12,000 FEET WITH NO
SIGNIFICANT WEATHER AND/OR OBSTRUCTIONS TO VISIBILITY.

NOT ALL STATIONS ARE QUALITY CONTROLLED BY THE NATIONAL
WEATHER SERVICE. USE DATA WITH CAUTION...ESPECIALLY
DEWPOINT OBSERVATIONS.

SCZ027-030-031-034>040-042>050-220200-
...SOUTH CAROLINA...

CITY           SKY/WX    TMP DP  RH WIND       PRES   REMARKS
N CHARLESTON   CLEAR     88  72  58 CALM      30.04R HX  94
WATERFRONT PRK   N/A     86 N/A N/A CALM        N/A
FORT JOHNSON   NOT AVBL
MOUNT PLEASANT FAIR      82  81  94 CALM      30.04S HX  95
JOHNS ISLAND   CLEAR     84  82  94 CALM      30.05R HX 101
PINOPOLIS        N/A     90  77  66 CALM      29.96S HX 102
MONCKS CORNER    N/A     81  81 100 CALM      30.04S HX  91
SUMMERVILLE    NOT AVBL
BEAUFORT MCAS  PTCLDY    85  76  74 CALM      30.04R HX  94
BEAUFORT ARPT  FAIR      82  79  89 S5        30.05R HX  93
HILTON HEAD IS CLEAR     82  81  94 S3        30.06R HX  95
GEORGETOWN     NOT AVBL
WALTERBORO     CLEAR     82  70  65 CALM      30.05S
ORANGEBURG     CLEAR     82  71  69 CALM      30.05S
BARNWELL       FAIR      82  70  65 CALM      30.06R
AIKEN          FAIR      86  70  58 CALM      30.10R HX  90
MANNING        FAIR      81  81 100 CALM      30.05R HX  91
KINGSTREE      NOT AVBL
COLUMBIA       PTCLDY    87  70  56 CALM      30.05R HX  92
SUMTER         PTCLDY    84  72  66 CALM      30.04S
FLORENCE       PTCLDY    82  72  71 CALM      30.04S
MYRTLE BEACH   CLEAR     82  73  74 SW6       30.04R
N MYRTLE BEACH PTCLDY    79  76  90 CALM      30.03S

$$

GAZ063-065-086>088-099>101-113>116-118-119-134-136>141-150-220200-
...GEORGIA...

CITY           SKY/WX    TMP DP  RH WIND       PRES   REMARKS
SAVANNAH ARPT  PTCLDY    85  73  67 CALM      30.05R HX  91
HUNTER AAF     CLEAR     85  74  71 E1        30.02S HX  92
FORT STEWART   CLEAR     83  72  69 CALM      30.04R
STATESBORO     NOT AVBL
SYLVANIA       CLEAR     80  76  88 CALM      30.06S
CLAXTON        FAIR      81  79  94 CALM      30.06R
THOMSON        PTCLDY    79  76  90 CALM      30.12R
AUGUSTA-BUSH   CLEAR     82  69  64 CALM      30.03S
AUGUSTA-DANIEL CLEAR     91  65  41 VRB3      30.06S HX  93
SWAINSBORO     FAIR      81  73  78 CALM      30.07S
VIDALIA          N/A     82  75  78 CALM      30.07R
ALMA           CLEAR     83  75  77 CALM      30.07R HX  90
WAYCROSS       CLEAR     86  78  77 CALM      30.06S HX  98
JESUP            N/A     82  77  83 CALM      30.06R HX  91
BRUNSWICK      CLEAR     82  73  74 CALM      30.08R
SAINT SIMONS   CLEAR     85  79  82 S9        30.06R HX  98

$$

SCZ027-028-034-036>038-045-046-048>050-GAZ119-141-220200-
...LAKE AND SUPPLEMENTAL COASTAL OBSERVATIONS...

STATION/POSITION TIME  TEMP    WIND        PRES    WAVE   SWELL
                       AIR SEA DIR/SP/G            HT/PER HT/PER/DIR
                 (UTC) (F)     (DEG/KT/KT) (MB)    (FT/S) (FT/S/D)
UPR LAKE MARION  NOT AVBL
WINYAH BAY       0100   82     240/  2     1017.0S
LAKE MURRAY      0100   87        CALM     1016.9S
ACE BASIN NERRS  0100   83        CALM     1017.0S
FORT PULASKI     0100   85     150/  4/  6 1018.0R
SAPELO ISLAND    0100   86     170/  5     1018.0S

$$

ANZ835-935-AMZ111-154-330-350-352-354-374-450-454-472-220200-
...C-MAN AND BUOY OBSERVATIONS...

STATION/POSITION TIME  TEMP    WIND        PRES    WAVE   SWELL
                       AIR SEA DIR/SP/G            HT/PER HT/PER/DIR
                 (UTC) (F)     (DEG/KT/KT) (MB)    (FT/S) (FT/S/D)
FOLLY BEACH CMAN 0100   84     230/  4/  4 1017.7R
BUOY 41004       0100   84 85  200/  6/  6 1016.9R   2/ 9   2/ 9
BUOY 41008       0100   85 85  180/ 10/ 10 1017.5R   1/ 9
5E ST. MARYS GA  0100      84                N/A     1/ 9
FRYING PAN BUOY  NOT AVBL
BUOY 41025       0100   81     200/  8/ 10 1016.2F   2/ 9   2/ 70/ 9
CAPE LOOKOUT NC  0100   82     210/  5/  7 1016.5R
BUOY 41002       0039   82 82  240/ 10/ 10 1018.8R   2/ 5   2/240/ 5
BUOY 41010       0100   85 86  180/  4/  4 1019.3R   1/ 7   2/120/ 7
BUOY 41012       NOT AVBL
ST AUGUSTINE FL  0100   81     220/  5/  6 1019.8R
CAPERS NEARSHORE 0000   85     210/  6/  8   N/A
FRIPP NEARSHORE  NOT AVBL


$$




U.S. Dept. of Commerce
NOAA National Weather Service
1325 East West Highway
Silver Spring, MD 20910
E-mail: w-nws.webmaster@noaa.gov
Page last modified: May 16, 2007
NATIONAL WEATHER SERVICE: for Safety, for Work, for Fun - FOR LIFE